Temperature
17 18 18 18 18 17 17 17 17 17 17 17 17 17 17 17 17 18 18 18 18 18 18 18 18 18 18 18 18 18 18 18 18 18 18 18 18 18 18 18 18 18 18
17 17 18 18 18 17 17 17 17 17 17 17 17 17 17 17 17 17 17 17 17 18 18 18 18 18 18 18 18 18 18 18 18 18 18 18 18 18 18 18 18 18 18
17 17 17 17 17 17 17 17 17 17 17 17 17 17 17 17 17 17 17 17 17 17 18 18 18 18 18 18 18 18 18 18 18 18 17 18 18 18 18 18 18 18 18
17 17 17 17 17 17 17 17 17 17 17 17 17 17 17 17 17 17 17 17 17 17 17 17 17 17 18 17 17 18 18 18 17 17 17 17 17 18 18 18 18 18 18
17 17 17 17 17 17 17 17 17 17 17 17 17 17 17 17 17 17 17 17 17 17 17 17 17 17 17 17 17 17 17 17 17 17 17 17 17 17 18 18 18 18 17
17 17 18 17 17 17 17 17 17 17 17 17 17 17 17 17 17 17 17 17 17 17 17 17 17 17 17 17 17 17 17 17 17 17 17 17 17 17 17 17 17 17 17
18 17 18 17 17 17 17 17 16 16 17 17 17 17 17 17 17 17 17 17 17 17 17 17 17 17 17 17 17 17 17 17 17 17 17 17 17 17 17 17 17 17 17
18 18 18 17 17 17 17 17 17 17 17 17 17 17 17 17 17 17 17 16 16 17 17 17 17 17 17 17 17 17 17 17 16 16 16 17 17 17 17 17 17 17 17
18 18 18 17 17 17 17 17 17 17 17 17 17 17 17 16 16 16 16 16 16 16 17 17 17 17 17 17 17 17 17 16 16 16 16 16 16 16 16 16 16 16 16
18 18 18 17 17 17 17 17 17 17 17 16 16 16 16 16 16 16 16 16 16 16 16 17 17 17 17 17 16 16 16 16 16 16 16 16 16 16 16 16 16 16 16
19 18 18 18 17 17 17 17 17 16 16 16 16 16 16 16 16 16 16 16 16 16 16 16 16 16 16 16 16 16 16 16 16 16 16 16 16 16 16 16 16 16 16
19 19 18 18 18 17 17 17 17 17 16 16 16 16 16 16 16 16 16 16 16 16 16 16 16 16 16 16 16 16 16 16 16 16 16 16 16 16 16 16 16 16 16
19 19 19 18 18 18 17 17 17 17 17 16 16 16 16 16 16 16 16 16 16 16 16 16 16 16 16 16 16 16 16 16 16 16 16 16 16 16 15 15 15 15 15
19 19 19 19 18 18 17 17 17 17 17 17 17 16 16 16 16 16 16 16 16 16 16 16 16 16 16 16 15 15 15 16 16 16 15 15 16 15 15 15 15 15 15
19 19 19 19 18 18 18 17 17 17 17 17 17 17 16 16 16 16 16 16 15 15 15 15 15 16 16 15 15 15 15 15 15 15 15 15 15 15 15 15 15 15 15
19 19 19 19 18 18 18 17 17 17 17 17 17 17 16 16 16 16 16 16 15 15 15 15 15 15 15 15 15 15 15 15 15 15 15 15 15 15 15 15 15 15 15
19 19 19 18 18 18 18 17 17 17 17 17 17 17 16 16 16 16 16 16 15 15 15 15 15 15 15 15 15 15 15 15 15 15 14 14 14 14 14 14 14 14 15
19 19 19 18 18 18 17 17 17 17 17 17 16 16 16 16 16 16 16 16 15 15 15 15 15 15 15 15 15 15 15 14 14 14 14 14 14 14 14 14 14 14 14
19 19 19 18 18 18 17 17 17 17 17 16 16 16 16 16 16 16 16 15 15 15 15 15 15 15 15 14 14 14 14 14 14 14 14 14 14 14 14 14 14 14 14
19 19 19 18 18 17 17 17 17 16 16 16 16 16 16 16 16 16 15 15 15 15 15 15 15 15 15 14 14 14 14 14 14 14 14 14 14 14 14 14 14 14 14
19 19 19 18 18 17 17 17 16 16 16 16 16 16 16 16 16 15 15 15 15 15 15 15 15 14 14 14 14 14 14 14 14 14 14 14 14 14 14 14 13 13 14
19 19 19 18 18 17 17 16 16 16 16 16 16 16 16 15 15 15 15 15 15 15 15 14 14 14 14 14 14 14 14 14 14 14 14 14 14 14 13 13 13 13 13
19 19 19 18 18 17 17 16 16 16 16 16 16 15 15 15 15 15 15 15 15 15 15 14 14 14 14 14 14 14 14 14 13 13 13 13 13 13 13 13 13 13 13
19 19 19 18 18 17 17 16 16 16 16 16 16 15 15 15 15 15 15 15 15 15 15 14 14 14 14 14 14 14 14 14 14 13 13 13 13 13 13 13 13 13 13
19 19 18 18 18 17 17 16 16 16 16 16 16 15 15 15 15 15 15 15 15 15 15 14 14 14 14 14 14 14 14 14 14 14 13 13 13 13 13 13 13 13 12
19 18 18 18 17 17 17 16 16 16 16 16 16 15 15 15 15 15 15 15 15 15 14 14 14 14 14 14 14 14 14 14 14 14 14 13 13 13 13 13 13 12 12
Wind_Speed
6 8 10 9 9 9 9 10 10 10 9 9 9 9 9 9 9 9 8 8 7 6 6 6 5 5 6 6 7 7 7 8 8 8 8 8 8 8 7 7 7 7 7
7 10 11 10 9 9 9 9 9 9 9 9 9 9 9 9 8 8 8 8 7 7 7 7 7 6 6 7 7 7 6 6 6 6 7 7 8 8 8 8 8 7 8
8 10 10 10 10 10 10 10 10 10 9 9 9 9 9 9 9 9 9 9 8 8 7 7 6 6 6 7 7 7 6 5 5 5 5 7 9 9 9 9 9 8 8
8 10 10 10 10 10 10 10 10 10 10 9 9 9 9 9 10 10 9 9 9 8 6 5 5 6 6 7 7 6 6 5 4 5 6 7 8 10 10 9 9 8 8
10 12 11 10 10 10 10 10 10 10 9 10 9 9 9 9 10 10 10 10 10 9 7 6 6 6 7 7 7 6 5 4 5 5 7 10 10 10 9 9 9 8 8
10 12 11 10 10 9 9 10 9 9 10 10 10 10 10 10 10 10 10 10 10 9 9 8 9 9 8 7 7 6 5 5 5 5 8 10 10 10 10 9 9 8 8
9 11 11 10 10 9 9 9 9 9 9 10 10 10 11 11 11 11 10 10 10 10 11 10 10 10 9 7 6 6 5 5 4 5 8 10 10 10 10 9 9 8 8
8 9 11 10 10 10 9 9 9 9 9 9 10 10 10 11 12 11 11 11 10 10 10 10 10 9 9 8 6 5 5 5 6 7 9 10 10 9 9 9 9 9 9
6 7 9 10 10 10 10 9 9 9 8 9 8 8 9 10 11 11 11 10 10 10 9 9 9 9 9 8 7 7 7 7 5 6 9 9 9 9 9 9 9 8 8
5 5 6 9 11 11 10 9 9 8 7 7 7 6 7 8 10 10 10 10 9 9 9 9 9 9 8 8 7 6 5 5 7 9 8 9 10 9 8 8 8 8 8
5 5 5 6 8 8 9 8 8 7 5 5 5 5 5 6 7 8 10 9 9 8 8 7 7 7 6 6 5 4 4 5 8 9 9 10 10 9 8 8 8 7 8
5 4 5 6 6 6 6 7 5 5 5 4 5 5 5 6 7 9 9 8 7 6 5 4 4 4 4 4 4 4 4 7 9 9 10 11 10 9 8 8 8 8 7
5 5 5 5 6 6 4 4 4 4 4 4 5 7 6 6 6 7 6 5 5 4 3 4 4 3 5 5 6 6 8 9 9 9 10 10 10 9 9 8 8 8 8
6 6 5 5 5 5 5 3 3 3 2 3 3 6 5 3 3 3 3 4 4 4 4 4 4 6 7 8 8 8 9 8 9 9 9 10 9 8 8 8 8 8 8
6 6 5 4 5 6 4 2 3 3 2 4 4 5 5 3 3 3 3 4 4 5 4 3 4 6 6 8 9 9 8 9 9 9 8 10 9 9 9 9 9 8 8
6 6 5 4 5 6 3 2 3 3 3 4 4 4 6 4 3 3 3 4 4 5 5 5 5 5 5 6 7 7 7 8 8 8 8 9 11 11 10 10 9 9 8
7 7 6 4 5 5 5 4 3 3 5 4 4 5 7 6 5 5 3 3 4 5 6 5 6 5 5 5 6 6 6 7 7 7 8 8 9 11 11 11 10 10 9
7 7 6 5 5 5 5 4 3 4 5 4 5 6 7 7 8 5 3 3 5 5 4 4 4 4 4 5 5 4 5 5 6 7 8 8 8 8 9 10 11 10 10
6 7 7 6 5 6 5 3 4 5 4 4 5 5 6 7 8 5 3 3 5 4 3 4 4 3 4 4 3 3 3 4 4 6 6 7 7 8 8 10 10 10 10
5 5 7 6 5 5 3 3 3 4 3 4 4 5 5 5 6 5 3 4 5 4 3 3 4 3 3 3 4 4 3 3 3 3 4 6 6 7 6 7 8 9 10
5 5 6 6 6 5 2 2 2 2 2 2 2 4 4 4 5 4 3 4 3 3 3 4 3 3 2 2 3 2 2 2 3 2 3 3 5 6 6 6 6 6 7
5 5 6 6 6 5 3 2 2 2 2 2 2 2 3 3 3 4 4 3 3 3 3 3 3 1 0 1 1 1 1 2 3 2 2 2 3 4 5 6 7 8 8
5 4 5 7 6 6 4 3 3 3 2 2 2 1 2 3 3 4 3 3 3 3 2 2 2 2 0 1 1 1 1 1 0 1 1 2 2 2 3 5 7 9 9
5 4 5 6 6 5 5 3 3 2 1 1 2 1 1 2 2 3 3 3 2 2 2 2 2 1 1 1 1 1 1 2 1 0 1 1 2 3 3 4 6 8 9
6 5 4 6 6 5 4 3 2 2 1 1 2 2 2 2 2 2 3 2 1 2 2 2 2 1 0 0 0 0 1 1 1 2 1 1 1 1 2 4 5 6 8
6 5 4 5 5 5 3 4 3 3 2 2 2 1 1 1 1 1 2 2 1 2 2 2 2 1 0 1 0 0 1 1 0 1 1 1 1 0 2 3 4 5 7
Wind_Direction
71 76 65 63 62 61 59 57 55 59 60 60 59 58 60 59 59 60 58 57 55 56 57 60 66 80 88 91 86 85 85 88 92 97 99 97 94 88 83 80 80 79 83
87 84 72 65 67 67 62 61 60 62 61 61 61 64 66 63 63 65 62 60 57 58 58 59 64 78 89 93 91 90 87 90 99 105 106 102 99 93 85 81 81 83 84
85 88 78 69 70 69 64 63 64 65 64 64 65 67 68 67 66 68 66 63 59 57 56 60 66 74 87 96 96 93 90 89 96 95 101 109 100 90 86 85 83 80 81
82 80 77 74 72 69 67 67 67 66 66 67 70 70 70 69 68 67 66 63 60 56 54 64 77 81 89 97 93 88 82 76 83 85 81 89 93 89 84 81 81 81 80
87 86 86 81 76 73 70 68 68 69 69 69 72 73 72 72 72 70 66 65 61 56 52 71 87 88 91 97 95 88 81 68 70 73 86 84 84 88 85 78 76 78 77
95 95 95 89 85 79 74 72 71 70 71 71 72 73 75 74 74 73 71 69 65 59 62 77 87 87 91 100 100 93 80 67 64 66 83 88 87 85 82 77 75 74 74
98 103 105 100 94 88 82 80 76 72 73 74 76 78 78 74 74 75 71 70 67 64 66 75 81 85 84 87 99 96 80 70 82 77 84 90 91 87 82 77 73 71 71
103 108 115 115 107 100 92 88 84 82 80 79 81 83 84 82 80 79 76 72 68 66 69 71 75 80 80 77 88 90 76 73 77 79 85 89 93 89 83 79 74 70 69
100 114 125 129 122 112 103 99 96 93 89 87 90 89 93 94 89 86 80 76 71 70 75 78 80 81 81 76 72 73 71 71 62 72 82 82 92 90 83 77 73 71 70
107 112 125 130 131 129 123 118 114 109 104 103 106 103 102 107 101 95 87 80 75 73 75 78 80 81 84 81 73 67 59 56 70 74 80 85 85 84 84 80 77 73 70
99 108 115 117 115 121 125 125 134 134 125 122 131 129 123 117 113 103 94 89 82 79 80 84 86 87 86 82 75 55 42 68 78 77 70 79 82 81 81 80 77 77 72
99 98 109 112 113 106 101 117 130 123 129 134 122 121 121 108 105 103 106 103 97 89 82 81 82 89 81 73 65 48 47 66 75 76 69 74 76 78 78 77 75 71 69
104 92 96 105 107 106 98 99 93 97 97 89 92 100 95 102 114 115 126 126 115 93 71 62 60 60 72 67 67 63 60 64 70 70 68 71 72 73 74 74 72 68 66
104 98 82 93 98 100 97 89 92 92 91 81 73 94 94 89 93 107 113 114 104 84 60 48 55 56 59 62 62 59 64 69 76 77 72 71 71 70 71 70 66 64 64
107 100 88 82 97 91 83 96 92 77 74 83 58 82 95 86 91 86 90 90 86 85 71 52 58 56 53 55 59 60 60 66 76 82 79 72 73 73 71 71 66 63 60
112 107 98 91 88 95 95 88 78 85 82 80 68 77 91 85 87 81 83 81 78 77 68 59 62 62 61 63 56 53 54 59 70 78 84 76 74 72 68 65 62 59 57
116 107 97 93 83 89 81 66 81 75 68 67 62 59 78 77 78 84 73 84 88 86 78 69 65 63 65 68 59 51 50 52 58 65 71 76 77 71 67 64 60 57 58
110 107 110 95 85 81 81 70 70 77 69 63 62 49 62 68 73 77 79 82 90 85 84 84 75 68 65 66 60 50 52 51 52 58 66 68 69 72 68 63 59 55 53
115 122 120 105 97 85 81 79 60 67 63 59 63 55 52 55 68 76 72 81 83 81 74 85 83 82 80 76 78 63 55 52 47 51 52 62 67 74 77 68 64 58 51
119 123 118 111 103 94 79 77 66 61 56 58 59 58 53 59 75 76 72 72 77 77 71 83 85 81 90 95 82 71 67 69 56 45 43 54 61 72 74 73 74 63 57
136 128 121 120 115 108 91 87 85 76 71 72 69 64 55 58 87 94 82 73 76 79 84 92 94 89 98 111 94 71 57 67 75 57 46 51 57 57 67 71 72 74 68
146 146 135 126 117 110 99 93 106 95 73 79 69 75 73 57 65 93 94 95 95 94 83 87 106 91 100 91 96 97 78 37 24 51 67 63 53 56 55 61 68 71 72
141 151 135 127 120 118 109 81 75 79 70 72 80 65 73 81 64 71 87 90 97 106 116 115 106 95 54 353 53 79 97 101 73 16 68 87 73 56 53 58 65 73 76
148 148 129 127 128 123 122 106 113 119 119 130 128 129 101 102 102 103 116 109 114 108 112 112 100 93 98 347 342 27 86 124 132 134 346 66 83 66 62 62 59 67 78
138 132 127 119 119 118 124 128 126 108 123 112 104 108 100 85 88 95 107 118 131 124 130 119 105 102 122 103 1 29 48 41 64 120 131 61 46 46 75 79 73 66 78
132 131 126 120 120 126 143 154 152 143 142 126 121 120 128 130 105 111 112 121 135 126 128 133 143 165 154 110 349 18 110 88 48 93 138 143 127 85 76 83 86 84 85
Height
1516 1515 1514 1513 1512 1512 1512 1512 1511 1511 1512 1512 1512 1512 1513 1513 1513 1513 1514 1514 1515 1515 1515 1516 1516 1517 1517 1518 1519 1520 1521 1522 1523 1524 1525 1526 1527 1527 1528 1529 1529 1530 1530
1517 1515 1514 1513 1513 1512 1512 1512 1512 1512 1513 1513 1513 1513 1513 1514 1514 1514 1514 1515 1515 1515 1516 1516 1516 1517 1518 1519 1520 1521 1522 1523 1524 1525 1526 1527 1527 1528 1529 1529 1530 1530 1531
1518 1516 1515 1514 1513 1513 1513 1513 1513 1513 1513 1514 1514 1514 1514 1514 1515 1515 1515 1515 1515 1515 1516 1516 1516 1517 1518 1519 1520 1521 1522 1524 1525 1526 1526 1527 1528 1529 1529 1530 1530 1531 1531
1518 1517 1516 1515 1515 1514 1514 1514 1514 1514 1514 1515 1515 1515 1515 1515 1515 1516 1516 1516 1515 1515 1515 1515 1516 1517 1518 1519 1521 1522 1523 1524 1526 1527 1527 1528 1529 1529 1530 1530 1531 1531 1531
1519 1518 1517 1516 1516 1516 1515 1515 1516 1516 1516 1516 1516 1516 1516 1516 1516 1516 1516 1516 1515 1514 1512 1512 1515 1517 1518 1519 1521 1522 1524 1525 1526 1527 1528 1529 1529 1530 1530 1531 1531 1531 1532
1520 1519 1518 1518 1517 1517 1517 1517 1517 1517 1517 1517 1517 1517 1517 1517 1518 1517 1517 1517 1516 1514 1510 1510 1514 1517 1518 1520 1521 1523 1524 1525 1527 1527 1529 1529 1530 1530 1531 1531 1531 1532 1532
1521 1520 1520 1519 1519 1518 1518 1518 1518 1518 1519 1519 1519 1519 1519 1519 1519 1519 1519 1518 1518 1517 1515 1514 1516 1518 1520 1521 1522 1523 1525 1526 1527 1528 1529 1530 1530 1531 1531 1531 1532 1532 1532
1523 1522 1521 1521 1520 1520 1520 1520 1520 1520 1520 1520 1520 1520 1521 1521 1521 1521 1520 1520 1520 1519 1518 1518 1519 1520 1521 1522 1523 1524 1526 1527 1528 1529 1530 1530 1531 1531 1532 1532 1532 1532 1533
1524 1524 1523 1522 1522 1522 1522 1522 1522 1522 1522 1522 1522 1522 1522 1523 1523 1522 1522 1522 1522 1522 1522 1522 1522 1523 1523 1524 1524 1525 1527 1528 1529 1530 1530 1531 1531 1532 1532 1532 1532 1533 1533
1526 1525 1525 1524 1524 1524 1524 1524 1524 1524 1524 1524 1524 1524 1525 1524 1525 1525 1524 1524 1524 1524 1524 1524 1524 1525 1525 1526 1527 1527 1528 1529 1530 1530 1531 1531 1532 1532 1532 1532 1532 1533 1533
1527 1527 1527 1527 1527 1527 1526 1526 1526 1526 1526 1526 1526 1526 1526 1526 1526 1527 1527 1527 1526 1526 1526 1526 1527 1527 1527 1528 1529 1529 1530 1530 1531 1531 1532 1532 1532 1532 1532 1533 1532 1533 1533
1528 1528 1528 1528 1528 1528 1529 1528 1528 1529 1529 1528 1528 1528 1528 1528 1528 1529 1529 1528 1528 1528 1528 1528 1528 1528 1529 1529 1530 1531 1531 1532 1532 1532 1532 1532 1533 1533 1533 1533 1533 1533 1533
1529 1529 1530 1530 1530 1530 1530 1530 1530 1531 1530 1531 1531 1530 1530 1530 1530 1530 1530 1530 1530 1530 1530 1530 1530 1530 1531 1531 1532 1532 1532 1532 1533 1533 1533 1533 1533 1533 1533 1533 1533 1533 1533
1530 1530 1531 1531 1531 1531 1531 1532 1532 1532 1532 1532 1532 1532 1532 1532 1531 1531 1531 1531 1531 1531 1532 1532 1532 1532 1532 1532 1533 1533 1533 1533 1533 1533 1533 1533 1533 1533 1533 1533 1533 1533 1533
1530 1531 1532 1532 1532 1532 1532 1533 1533 1533 1533 1533 1533 1533 1533 1533 1533 1532 1532 1532 1533 1533 1533 1533 1534 1533 1533 1534 1534 1534 1534 1534 1534 1534 1534 1534 1534 1534 1534 1534 1533 1533 1533
1531 1531 1532 1533 1533 1533 1533 1534 1534 1534 1534 1534 1534 1534 1534 1534 1534 1534 1534 1534 1534 1534 1534 1535 1535 1535 1535 1535 1535 1535 1536 1536 1535 1535 1535 1535 1535 1535 1535 1534 1534 1534 1533
1531 1532 1532 1533 1534 1534 1534 1534 1535 1535 1535 1535 1535 1535 1535 1535 1535 1534 1534 1535 1535 1535 1535 1535 1536 1536 1536 1536 1536 1536 1537 1537 1537 1537 1536 1536 1536 1536 1535 1535 1535 1534 1534
1531 1532 1533 1534 1534 1535 1535 1535 1536 1536 1536 1536 1536 1536 1535 1535 1535 1535 1535 1536 1536 1536 1536 1536 1536 1537 1537 1537 1537 1538 1538 1538 1538 1538 1537 1537 1537 1536 1536 1536 1535 1535 1535
1531 1531 1533 1534 1534 1535 1535 1536 1536 1536 1536 1537 1536 1536 1536 1536 1536 1536 1536 1536 1537 1537 1537 1537 1537 1538 1538 1538 1538 1539 1539 1539 1539 1539 1539 1538 1538 1538 1537 1537 1536 1536 1535
1531 1532 1533 1534 1535 1535 1536 1536 1536 1537 1537 1537 1537 1537 1537 1537 1537 1537 1537 1537 1537 1538 1538 1538 1538 1538 1539 1539 1540 1540 1540 1540 1540 1540 1540 1540 1539 1539 1538 1538 1537 1536 1536
1531 1532 1533 1534 1535 1535 1536 1536 1537 1537 1537 1537 1537 1538 1538 1538 1538 1538 1538 1538 1538 1538 1539 1539 1539 1539 1540 1540 1540 1541 1541 1542 1542 1542 1541 1541 1541 1540 1540 1539 1538 1537 1536
1530 1532 1532 1533 1535 1535 1536 1537 1537 1537 1538 1538 1538 1538 1538 1538 1538 1539 1539 1539 1538 1539 1539 1540 1540 1540 1541 1541 1541 1542 1542 1544 1543 1543 1543 1542 1542 1542 1541 1540 1539 1538 1536
1529 1531 1532 1533 1534 1535 1536 1537 1537 1538 1538 1538 1538 1538 1538 1539 1539 1539 1539 1539 1540 1540 1540 1540 1540 1541 1541 1542 1542 1543 1543 1543 1544 1545 1544 1544 1543 1543 1542 1541 1540 1539 1538
1528 1530 1532 1533 1534 1535 1536 1537 1537 1538 1538 1539 1539 1539 1539 1539 1539 1539 1539 1540 1540 1540 1541 1541 1541 1541 1542 1542 1543 1543 1544 1543 1544 1544 1545 1545 1544 1544 1543 1542 1542 1540 1539
1527 1529 1531 1532 1533 1534 1535 1536 1537 1538 1538 1539 1539 1539 1539 1539 1539 1540 1540 1540 1540 1541 1541 1541 1541 1542 1542 1542 1543 1543 1543 1543 1544 1544 1544 1545 1545 1545 1544 1543 1542 1541 1540
1526 1528 1530 1531 1533 1534 1535 1536 1537 1537 1538 1538 1539 1539 1539 1539 1539 1540 1540 1540 1540 1541 1541 1541 1542 1542 1542 1542 1543 1543 1543 1543 1543 1543 1544 1544 1545 1545 1545 1544 1543 1542 1542